LHA2141 EDDP-LIMJ

Flight info

Callsign LHA2141
Flight time N/A
Altitude 25000
Route GOLA2Q GOLAT T202 TABAT M736 RDG/N0331F240 M736 DOSEL/N0311F250 M736 LIZUM N503 LIKDA DCT BAKOR DCT OSKOR DCT MONEB
Aircraft DH8D/M-SDE1E2FGIJ1RWYZ/S

Departure

Time 2026-05-06 06:19
Airport Leipzig/Halle Airport (EDDP)

Arrival

Time N/A
Airport Genoa Cristoforo Colombo Airport (LIMJ)
Time Latitude Longitude Altitude Speed Heading
2026-05-06 05:53 51.41940 12.21772 480 ft 0 kts 15°
2026-05-06 06:08 51.41941 12.21772 480 ft 0 kts 15°
2026-05-06 06:08 51.41939 12.21772 480 ft 1 kts 15°
2026-05-06 06:08 51.41925 12.21766 480 ft 2 kts 15°
2026-05-06 06:09 51.41911 12.21759 480 ft 2 kts 15°
2026-05-06 06:09 51.41896 12.21753 480 ft 2 kts 15°
2026-05-06 06:09 51.41882 12.21747 480 ft 2 kts 15°
2026-05-06 06:09 51.41869 12.21741 480 ft 0 kts 15°
2026-05-06 06:10 51.41859 12.21741 480 ft 1 kts 335°
2026-05-06 06:10 51.41851 12.21754 480 ft 0 kts 283°
2026-05-06 06:10 51.41851 12.21758 480 ft 0 kts 284°
2026-05-06 06:13 51.41851 12.21754 480 ft 1 kts 284°
2026-05-06 06:13 51.41856 12.21726 480 ft 5 kts 284°
2026-05-06 06:13 51.41869 12.21648 480 ft 9 kts 285°
2026-05-06 06:13 51.41889 12.21529 480 ft 12 kts 285°
2026-05-06 06:14 51.41915 12.21380 480 ft 15 kts 285°
2026-05-06 06:14 51.41945 12.21204 480 ft 17 kts 285°
2026-05-06 06:14 51.41977 12.21018 480 ft 15 kts 285°
2026-05-06 06:14 51.42037 12.20918 480 ft 12 kts 358°
2026-05-06 06:15 51.42120 12.20948 480 ft 11 kts 14°
2026-05-06 06:15 51.42205 12.20986 480 ft 14 kts 15°
2026-05-06 06:15 51.42283 12.21020 491 ft 8 kts 15°
2026-05-06 06:15 51.42358 12.21054 497 ft 13 kts 15°
2026-05-06 06:16 51.42462 12.21100 503 ft 17 kts 14°
2026-05-06 06:16 51.42579 12.21149 503 ft 17 kts 15°
2026-05-06 06:16 51.42698 12.21202 493 ft 18 kts 15°
2026-05-06 06:16 51.42829 12.21258 480 ft 17 kts 14°
2026-05-06 06:17 51.42911 12.21306 480 ft 8 kts 44°
2026-05-06 06:17 51.42951 12.21371 480 ft 10 kts 46°
2026-05-06 06:17 51.43013 12.21477 480 ft 15 kts 47°
2026-05-06 06:17 51.43083 12.21595 480 ft 12 kts 45°
2026-05-06 06:18 51.43129 12.21694 480 ft 11 kts 77°
2026-05-06 06:18 51.43131 12.21715 480 ft 0 kts 86°
2026-05-06 06:18 51.43131 12.21727 480 ft 12 kts 86°
2026-05-06 06:18 51.43166 12.22410 480 ft 107 kts 86°
2026-05-06 06:19 51.43244 12.23937 573 ft 155 kts 82°
2026-05-06 06:19 51.43372 12.25675 1128 ft 159 kts 85°
2026-05-06 06:19 51.43384 12.27409 1850 ft 162 kts 88°
2026-05-06 06:19 51.43406 12.29215 2439 ft 164 kts 86°
2026-05-06 06:20 51.43453 12.31068 2991 ft 165 kts 84°
2026-05-06 06:20 51.43513 12.32906 3414 ft 176 kts 83°
2026-05-06 06:20 51.43596 12.34966 3786 ft 189 kts 83°
2026-05-06 06:20 51.43692 12.37058 4320 ft 195 kts 83°
2026-05-06 06:21 51.43798 12.39228 4887 ft 196 kts 82°
2026-05-06 06:21 51.43907 12.41402 5434 ft 200 kts 82°
2026-05-06 06:21 51.44024 12.43636 5983 ft 204 kts 83°
2026-05-06 06:21 51.44144 12.45904 6519 ft 208 kts 84°
2026-05-06 06:22 51.44268 12.48215 7095 ft 210 kts 84°
2026-05-06 06:22 51.44392 12.50553 7628 ft 214 kts 87°
2026-05-06 06:22 51.44177 12.52846 8147 ft 208 kts 125°
2026-05-06 06:22 51.43100 12.54175 8580 ft 197 kts 171°
2026-05-06 06:23 51.41777 12.54489 9218 ft 191 kts 179°
2026-05-06 06:23 51.40483 12.54716 9864 ft 188 kts 179°
2026-05-06 06:23 51.39114 12.54922 10074 ft 211 kts 179°
2026-05-06 06:23 51.37616 12.55124 10399 ft 223 kts 179°
2026-05-06 06:24 51.36055 12.55330 10925 ft 227 kts 179°
2026-05-06 06:24 51.34503 12.55530 11546 ft 226 kts 178°
2026-05-06 06:24 51.32943 12.55724 12122 ft 227 kts 178°
2026-05-06 06:24 51.31375 12.55915 12691 ft 228 kts 179°
2026-05-06 06:25 51.29792 12.56102 13240 ft 229 kts 179°
2026-05-06 06:25 51.28208 12.56288 13764 ft 230 kts 179°
2026-05-06 06:25 51.25020 12.56654 14762 ft 232 kts 180°
2026-05-06 06:26 51.23406 12.56837 15234 ft 234 kts 181°
2026-05-06 06:26 51.21788 12.57020 15694 ft 235 kts 181°
2026-05-06 06:26 51.20163 12.57203 16129 ft 237 kts 181°
2026-05-06 06:26 51.18531 12.57387 16558 ft 238 kts 182°
2026-05-06 06:27 51.16882 12.57571 16963 ft 240 kts 182°
2026-05-06 06:27 51.15222 12.57607 17345 ft 235 kts 195°
2026-05-06 06:27 51.13866 12.56393 17655 ft 228 kts 229°
2026-05-06 06:27 51.12997 12.54275 18049 ft 229 kts 237°
2026-05-06 06:28 51.12197 12.52102 18449 ft 229 kts 238°
2026-05-06 06:28 51.11409 12.49931 18827 ft 229 kts 238°
2026-05-06 06:28 51.10612 12.47719 19199 ft 229 kts 238°
2026-05-06 06:28 51.09820 12.45514 19554 ft 230 kts 239°
2026-05-06 06:29 51.09035 12.43323 19895 ft 230 kts 239°
2026-05-06 06:29 51.08250 12.41130 20197 ft 230 kts 239°
2026-05-06 06:29 51.07452 12.38899 20492 ft 231 kts 239°
2026-05-06 06:29 51.06662 12.36691 20772 ft 231 kts 240°
2026-05-06 06:30 51.05866 12.34465 21043 ft 231 kts 240°
2026-05-06 06:30 51.05074 12.32253 21298 ft 232 kts 240°
2026-05-06 06:30 51.04282 12.30038 21544 ft 232 kts 240°
2026-05-06 06:30 51.03480 12.27800 21780 ft 232 kts 241°
2026-05-06 06:31 51.02685 12.25581 21987 ft 233 kts 241°
2026-05-06 06:31 51.01885 12.23350 22195 ft 234 kts 242°
2026-05-06 06:31 51.01074 12.21090 22389 ft 235 kts 242°
2026-05-06 06:31 51.00271 12.18852 22575 ft 236 kts 242°
2026-05-06 06:32 50.99453 12.16575 22755 ft 237 kts 243°
2026-05-06 06:32 50.98635 12.14302 22922 ft 238 kts 243°
2026-05-06 06:32 50.97816 12.12027 23087 ft 239 kts 243°
2026-05-06 06:32 50.96986 12.09721 23240 ft 240 kts 244°
2026-05-06 06:33 50.96159 12.07426 23390 ft 241 kts 244°
2026-05-06 06:33 50.95328 12.05124 23527 ft 242 kts 244°
2026-05-06 06:33 50.94490 12.02805 23664 ft 243 kts 245°
2026-05-06 06:33 50.93645 12.00466 23795 ft 245 kts 245°
2026-05-06 06:34 50.92801 11.98134 23918 ft 246 kts 245°
2026-05-06 06:34 50.91951 11.95788 24037 ft 247 kts 245°
2026-05-06 06:34 50.90984 11.93525 24122 ft 256 kts 234°
2026-05-06 06:34 50.89580 11.91720 24205 ft 264 kts 225°
2026-05-06 06:35 50.88071 11.89996 24259 ft 267 kts 225°
2026-05-06 06:35 50.86568 11.88291 24519 ft 262 kts 226°
2026-05-06 06:35 50.85099 11.86623 24720 ft 260 kts 226°
2026-05-06 06:35 50.83632 11.84941 24783 ft 263 kts 226°
2026-05-06 06:36 50.82151 11.83236 24799 ft 266 kts 226°
2026-05-06 06:36 50.80656 11.81520 24799 ft 265 kts 226°
2026-05-06 06:36 50.79179 11.79825 24798 ft 265 kts 226°
2026-05-06 06:36 50.77693 11.78119 24800 ft 265 kts 226°
2026-05-06 06:37 50.76196 11.76398 24803 ft 265 kts 226°
2026-05-06 06:37 50.74707 11.74688 24804 ft 265 kts 226°
2026-05-06 06:37 50.73228 11.72988 24804 ft 265 kts 226°
2026-05-06 06:37 50.71747 11.71287 24803 ft 266 kts 226°
2026-05-06 06:38 50.70251 11.69570 24804 ft 266 kts 226°
2026-05-06 06:38 50.68742 11.67840 24804 ft 266 kts 226°
2026-05-06 06:38 50.67249 11.66128 24804 ft 267 kts 226°
2026-05-06 06:38 50.65759 11.64422 24804 ft 267 kts 226°
2026-05-06 06:39 50.64267 11.62715 24803 ft 267 kts 226°
2026-05-06 06:39 50.62753 11.60984 24804 ft 267 kts 226°
2026-05-06 06:39 50.61260 11.59277 24804 ft 267 kts 226°
2026-05-06 06:39 50.59751 11.57555 24804 ft 268 kts 226°
2026-05-06 06:40 50.58252 11.55845 24804 ft 268 kts 226°
2026-05-06 06:40 50.56661 11.54246 24780 ft 279 kts 214°
2026-05-06 06:40 50.54666 11.53887 24802 ft 308 kts 182°
2026-05-06 06:40 50.52591 11.54984 24827 ft 321 kts 167°
2026-05-06 06:41 50.50560 11.56390 24809 ft 323 kts 167°
2026-05-06 06:41 50.48510 11.57811 24803 ft 324 kts 167°
2026-05-06 06:41 50.46449 11.59227 24803 ft 324 kts 167°
2026-05-06 06:41 50.44374 11.60636 24804 ft 324 kts 167°
2026-05-06 06:42 50.42313 11.62025 24805 ft 325 kts 167°
2026-05-06 06:42 50.40237 11.63416 24804 ft 325 kts 168°
2026-05-06 06:42 50.38179 11.64788 24804 ft 325 kts 168°
2026-05-06 06:42 50.36076 11.66185 24804 ft 326 kts 168°
2026-05-06 06:43 50.34016 11.67548 24804 ft 326 kts 168°
2026-05-06 06:43 50.31917 11.68934 24804 ft 326 kts 168°
2026-05-06 06:43 50.29848 11.70298 24804 ft 327 kts 168°
2026-05-06 06:43 50.27745 11.71681 24804 ft 327 kts 168°
2026-05-06 06:44 50.25663 11.73049 24804 ft 328 kts 168°
2026-05-06 06:44 50.23566 11.74424 24804 ft 328 kts 168°
2026-05-06 06:44 50.21472 11.75795 24804 ft 328 kts 168°
2026-05-06 06:44 50.19363 11.77175 24804 ft 329 kts 168°
2026-05-06 06:45 50.17253 11.78554 24804 ft 329 kts 168°
2026-05-06 06:45 50.15136 11.79936 24804 ft 329 kts 168°
2026-05-06 06:45 50.13036 11.81305 24804 ft 330 kts 168°
2026-05-06 06:45 50.10921 11.82683 24804 ft 330 kts 168°
2026-05-06 06:46 50.08807 11.84059 24805 ft 330 kts 168°
2026-05-06 06:46 50.06686 11.85437 24804 ft 331 kts 168°
2026-05-06 06:46 50.04573 11.86810 24804 ft 331 kts 168°
2026-05-06 06:46 50.02455 11.88184 24803 ft 332 kts 168°
2026-05-06 06:47 50.00335 11.89558 24802 ft 332 kts 168°
2026-05-06 06:47 49.98196 11.90943 24801 ft 332 kts 168°
2026-05-06 06:47 49.96091 11.92305 24801 ft 333 kts 168°
2026-05-06 06:47 49.93937 11.93697 24800 ft 333 kts 168°
2026-05-06 06:48 49.91816 11.95073 24799 ft 334 kts 167°
2026-05-06 06:48 49.89678 11.96461 24799 ft 334 kts 167°
2026-05-06 06:48 49.87537 11.97850 24799 ft 334 kts 167°
2026-05-06 06:48 49.85396 11.99237 24799 ft 335 kts 167°
2026-05-06 06:49 49.83252 12.00621 24799 ft 335 kts 167°
2026-05-06 06:49 49.81096 12.02007 24798 ft 335 kts 167°
2026-05-06 06:49 49.78958 12.03381 24799 ft 335 kts 167°
2026-05-06 06:49 49.76819 12.04753 24799 ft 336 kts 167°
2026-05-06 06:50 49.74654 12.06141 24799 ft 336 kts 167°
2026-05-06 06:50 49.72493 12.07525 24799 ft 336 kts 167°
2026-05-06 06:50 49.70376 12.09102 24780 ft 347 kts 156°
2026-05-06 06:50 49.68454 12.11350 24805 ft 351 kts 149°
2026-05-06 06:51 49.66561 12.13716 24807 ft 352 kts 149°
2026-05-06 06:51 49.64663 12.16087 24801 ft 352 kts 149°
2026-05-06 06:51 49.62764 12.18450 24798 ft 353 kts 149°
2026-05-06 06:51 49.60840 12.20836 24797 ft 353 kts 149°
2026-05-06 06:52 49.58928 12.23199 24798 ft 353 kts 149°
2026-05-06 06:52 49.57028 12.25542 24799 ft 353 kts 149°
2026-05-06 06:52 49.55113 12.27899 24799 ft 354 kts 149°
2026-05-06 06:52 49.53198 12.30250 24799 ft 354 kts 149°
2026-05-06 06:53 49.51276 12.32607 24798 ft 354 kts 149°
2026-05-06 06:53 49.49353 12.34962 24799 ft 355 kts 149°
2026-05-06 06:53 49.47408 12.37339 24799 ft 355 kts 149°
2026-05-06 06:53 49.45479 12.39695 24799 ft 355 kts 149°
2026-05-06 06:54 49.43559 12.42037 24799 ft 356 kts 149°
2026-05-06 06:54 49.41628 12.44389 24802 ft 356 kts 149°
2026-05-06 06:54 49.39704 12.46730 24806 ft 356 kts 149°
2026-05-06 06:54 49.37768 12.49084 24810 ft 356 kts 149°
2026-05-06 06:55 49.35831 12.51435 24815 ft 356 kts 149°
2026-05-06 06:55 49.33768 12.53414 24783 ft 338 kts 169°
2026-05-06 06:55 49.31567 12.53912 24853 ft 311 kts 191°
2026-05-06 06:55 49.29418 12.53861 24834 ft 310 kts 192°
2026-05-06 06:56 49.27280 12.53776 24829 ft 310 kts 193°
2026-05-06 06:56 49.25110 12.53680 24832 ft 310 kts 193°
2026-05-06 06:56 49.22968 12.53581 24834 ft 310 kts 193°
2026-05-06 06:56 49.20814 12.53480 24835 ft 310 kts 193°
2026-05-06 06:57 49.18667 12.53377 24834 ft 310 kts 193°
2026-05-06 06:57 49.16509 12.53272 24834 ft 310 kts 193°
2026-05-06 06:57 49.14379 12.53168 24834 ft 311 kts 193°
2026-05-06 06:57 49.12220 12.53063 24834 ft 311 kts 193°
2026-05-06 06:58 49.10045 12.52956 24834 ft 311 kts 193°
2026-05-06 06:58 49.07899 12.52850 24833 ft 311 kts 193°
2026-05-06 06:58 49.05764 12.52744 24833 ft 311 kts 193°
2026-05-06 06:58 49.03597 12.52637 24834 ft 311 kts 193°
2026-05-06 06:59 49.01437 12.52490 24834 ft 311 kts 194°
2026-05-06 06:59 48.99295 12.52319 24834 ft 311 kts 194°
2026-05-06 06:59 48.97122 12.52145 24833 ft 311 kts 193°
2026-05-06 06:59 48.94977 12.51976 24834 ft 312 kts 193°
2026-05-06 07:00 48.92812 12.51807 24834 ft 312 kts 193°
2026-05-06 07:00 48.90670 12.51640 24835 ft 312 kts 193°
2026-05-06 07:00 48.88491 12.51472 24833 ft 311 kts 193°
2026-05-06 07:00 48.86346 12.51308 24833 ft 311 kts 193°
2026-05-06 07:01 48.84185 12.51142 24835 ft 310 kts 193°
2026-05-06 07:01 48.82033 12.50978 24835 ft 310 kts 193°
2026-05-06 07:01 48.79880 12.50813 24834 ft 309 kts 193°
2026-05-06 07:01 48.77749 12.50650 24834 ft 309 kts 193°
2026-05-06 07:02 48.75610 12.50487 24834 ft 309 kts 193°
2026-05-06 07:02 48.73474 12.50324 24834 ft 309 kts 193°
2026-05-06 07:02 48.71345 12.50162 24834 ft 309 kts 193°
2026-05-06 07:02 48.69206 12.49999 24833 ft 308 kts 193°
2026-05-06 07:03 48.67062 12.49836 24833 ft 308 kts 193°
2026-05-06 07:03 48.64915 12.49673 24832 ft 308 kts 193°
2026-05-06 07:03 48.62801 12.49513 24832 ft 307 kts 193°
2026-05-06 07:03 48.60666 12.49351 24832 ft 307 kts 193°
2026-05-06 07:04 48.58550 12.49192 24832 ft 307 kts 193°
2026-05-06 07:04 48.56403 12.49029 24831 ft 307 kts 193°
2026-05-06 07:04 48.54286 12.48869 24831 ft 306 kts 193°
2026-05-06 07:04 48.52163 12.48709 24831 ft 306 kts 193°
2026-05-06 07:05 48.50050 12.48550 24831 ft 306 kts 193°
2026-05-06 07:05 48.47930 12.48390 24831 ft 306 kts 193°
2026-05-06 07:05 48.45813 12.48228 24831 ft 305 kts 194°
2026-05-06 07:05 48.43812 12.47632 24793 ft 281 kts 217°
2026-05-06 07:06 48.42291 12.46008 24850 ft 265 kts 229°
2026-05-06 07:06 48.40886 12.44232 24844 ft 265 kts 230°
2026-05-06 07:06 48.39475 12.42439 24833 ft 265 kts 230°
2026-05-06 07:06 48.38079 12.40659 24827 ft 265 kts 230°
2026-05-06 07:07 48.36676 12.38872 24829 ft 265 kts 230°
2026-05-06 07:07 48.35281 12.37095 24831 ft 265 kts 230°
2026-05-06 07:07 48.33874 12.35303 24831 ft 264 kts 230°
2026-05-06 07:07 48.32472 12.33519 24831 ft 264 kts 230°
2026-05-06 07:08 48.31068 12.31734 24830 ft 264 kts 230°
2026-05-06 07:08 48.29666 12.29951 24831 ft 264 kts 230°
2026-05-06 07:08 48.28280 12.28189 24830 ft 264 kts 230°
2026-05-06 07:08 48.26869 12.26399 24830 ft 264 kts 230°
2026-05-06 07:09 48.25485 12.24643 24830 ft 264 kts 230°
2026-05-06 07:09 48.24073 12.22853 24830 ft 264 kts 230°
2026-05-06 07:09 48.22694 12.21107 24830 ft 263 kts 230°
2026-05-06 07:09 48.21296 12.19337 24830 ft 263 kts 230°
2026-05-06 07:10 48.19886 12.17553 24831 ft 263 kts 230°
2026-05-06 07:10 48.18490 12.15789 24831 ft 263 kts 230°
2026-05-06 07:10 48.17097 12.14030 24831 ft 263 kts 230°
2026-05-06 07:10 48.15698 12.12264 24830 ft 263 kts 230°
2026-05-06 07:11 48.14299 12.10499 24831 ft 263 kts 230°
2026-05-06 07:11 48.12904 12.08741 24831 ft 263 kts 230°
2026-05-06 07:11 48.11515 12.06992 24830 ft 263 kts 230°
2026-05-06 07:11 48.10116 12.05231 24830 ft 262 kts 230°
2026-05-06 07:12 48.08736 12.03496 24830 ft 262 kts 230°
2026-05-06 07:12 48.07330 12.01730 24831 ft 262 kts 230°
2026-05-06 07:12 48.05946 11.99991 24831 ft 262 kts 230°
2026-05-06 07:12 48.04548 11.98236 24830 ft 262 kts 230°
2026-05-06 07:13 48.03150 11.96484 24830 ft 262 kts 230°
2026-05-06 07:13 48.01765 11.94748 24831 ft 262 kts 230°
2026-05-06 07:13 48.00368 11.92999 24830 ft 262 kts 230°
2026-05-06 07:13 47.98980 11.91262 24831 ft 262 kts 230°
2026-05-06 07:14 47.97599 11.89536 24831 ft 261 kts 230°
2026-05-06 07:14 47.96193 11.87780 24830 ft 261 kts 230°
2026-05-06 07:14 47.94811 11.86054 24830 ft 261 kts 230°
2026-05-06 07:14 47.93410 11.84306 24831 ft 261 kts 230°
2026-05-06 07:15 47.92018 11.82571 24831 ft 261 kts 230°
2026-05-06 07:15 47.90615 11.80862 24827 ft 264 kts 226°
2026-05-06 07:15 47.88928 11.79847 24812 ft 287 kts 199°
2026-05-06 07:15 47.86900 11.79677 24821 ft 293 kts 193°
2026-05-06 07:16 47.84877 11.79592 24835 ft 293 kts 193°
2026-05-06 07:16 47.82840 11.79506 24837 ft 292 kts 193°
2026-05-06 07:16 47.80822 11.79414 24833 ft 293 kts 193°
2026-05-06 07:16 47.78778 11.79314 24832 ft 294 kts 193°
2026-05-06 07:17 47.76728 11.79209 24832 ft 295 kts 194°
2026-05-06 07:17 47.74683 11.79102 24832 ft 296 kts 194°
2026-05-06 07:17 47.72631 11.78993 24832 ft 297 kts 194°
2026-05-06 07:17 47.70593 11.78882 24832 ft 298 kts 194°
2026-05-06 07:18 47.68527 11.78768 24832 ft 299 kts 193°
2026-05-06 07:18 47.66436 11.78653 24832 ft 300 kts 194°
2026-05-06 07:18 47.64348 11.78537 24832 ft 300 kts 193°
2026-05-06 07:18 47.62281 11.78422 24832 ft 301 kts 193°
2026-05-06 07:19 47.60176 11.78305 24832 ft 302 kts 193°
2026-05-06 07:19 47.58088 11.78188 24831 ft 303 kts 193°
2026-05-06 07:19 47.55993 11.78071 24831 ft 303 kts 193°
2026-05-06 07:19 47.53877 11.77953 24832 ft 304 kts 193°
2026-05-06 07:20 47.51763 11.77835 24831 ft 305 kts 193°
2026-05-06 07:20 47.49665 11.77717 24832 ft 305 kts 193°
2026-05-06 07:20 47.47557 11.77600 24831 ft 306 kts 193°
2026-05-06 07:20 47.45430 11.77481 24830 ft 307 kts 193°
2026-05-06 07:21 47.43292 11.77362 24831 ft 307 kts 193°
2026-05-06 07:21 47.41153 11.77242 24831 ft 308 kts 193°
2026-05-06 07:21 47.39033 11.77124 24831 ft 308 kts 193°
2026-05-06 07:21 47.36899 11.77005 24831 ft 309 kts 193°
2026-05-06 07:22 47.34762 11.76887 24832 ft 309 kts 193°
2026-05-06 07:22 47.32624 11.76768 24832 ft 309 kts 193°
2026-05-06 07:22 47.30471 11.76648 24833 ft 310 kts 193°
2026-05-06 07:22 47.28319 11.76529 24833 ft 310 kts 193°
2026-05-06 07:23 47.26166 11.76409 24832 ft 311 kts 193°
2026-05-06 07:23 47.23998 11.76289 24833 ft 311 kts 193°
2026-05-06 07:23 47.21864 11.76171 24832 ft 311 kts 193°
2026-05-06 07:23 47.19701 11.76051 24832 ft 312 kts 193°
2026-05-06 07:24 47.17550 11.75932 24831 ft 312 kts 193°
2026-05-06 07:24 47.15366 11.75812 24831 ft 311 kts 193°
2026-05-06 07:24 47.13208 11.75694 24830 ft 311 kts 193°
2026-05-06 07:24 47.11053 11.75575 24831 ft 311 kts 193°
2026-05-06 07:25 47.08901 11.75460 24830 ft 311 kts 193°
2026-05-06 07:25 47.06737 11.75346 24831 ft 311 kts 193°
2026-05-06 07:25 47.04612 11.75234 24831 ft 311 kts 193°
2026-05-06 07:25 47.02443 11.75120 24832 ft 311 kts 193°
2026-05-06 07:26 47.00299 11.75007 24848 ft 310 kts 192°
2026-05-06 07:26 46.98157 11.74891 24869 ft 309 kts 192°
2026-05-06 07:26 46.96008 11.74773 24889 ft 309 kts 192°
2026-05-06 07:26 46.93866 11.74656 24908 ft 309 kts 191°
2026-05-06 07:27 46.91730 11.74539 24929 ft 309 kts 191°
2026-05-06 07:27 46.89624 11.74423 24948 ft 309 kts 191°
2026-05-06 07:27 46.87536 11.74310 24967 ft 307 kts 190°
2026-05-06 07:27 46.85384 11.74194 24976 ft 306 kts 190°
2026-05-06 07:28 46.83282 11.74079 24981 ft 306 kts 190°
2026-05-06 07:28 46.81150 11.73962 24982 ft 307 kts 190°
2026-05-06 07:28 46.76881 11.73728 24985 ft 308 kts 190°
2026-05-06 07:29 46.74760 11.73612 24986 ft 308 kts 190°
2026-05-06 07:29 46.72626 11.73496 24986 ft 309 kts 190°
2026-05-06 07:29 46.70474 11.73379 24986 ft 309 kts 190°
2026-05-06 07:29 46.68325 11.73262 24982 ft 310 kts 190°
2026-05-06 07:30 46.66182 11.73145 24976 ft 311 kts 190°
2026-05-06 07:30 46.64005 11.73027 24969 ft 312 kts 190°
2026-05-06 07:30 46.61890 11.72718 24936 ft 303 kts 204°
2026-05-06 07:30 46.60176 11.71243 24970 ft 276 kts 233°
2026-05-06 07:31 46.58898 11.69201 24950 ft 274 kts 237°
2026-05-06 07:31 46.57645 11.67095 24947 ft 275 kts 237°
2026-05-06 07:31 46.56410 11.64999 24945 ft 276 kts 237°
2026-05-06 07:31 46.55153 11.62857 24942 ft 277 kts 238°
2026-05-06 07:32 46.53915 11.60742 24941 ft 278 kts 238°
2026-05-06 07:32 46.52657 11.58588 24940 ft 279 kts 238°
2026-05-06 07:32 46.51409 11.56452 24940 ft 280 kts 238°
2026-05-06 07:32 46.50157 11.54307 24940 ft 280 kts 238°
2026-05-06 07:33 46.48891 11.52139 24940 ft 281 kts 238°
2026-05-06 07:33 46.47636 11.49988 24939 ft 282 kts 238°
2026-05-06 07:33 46.46370 11.47820 24940 ft 282 kts 238°
2026-05-06 07:33 46.45092 11.45633 24939 ft 283 kts 238°
2026-05-06 07:34 46.43835 11.43484 24939 ft 283 kts 238°
2026-05-06 07:34 46.42556 11.41297 24939 ft 284 kts 238°
2026-05-06 07:34 46.41282 11.39120 24940 ft 284 kts 238°
2026-05-06 07:34 46.39998 11.36927 24940 ft 285 kts 238°
2026-05-06 07:35 46.38724 11.34753 24939 ft 285 kts 237°
2026-05-06 07:35 46.37424 11.32538 24938 ft 285 kts 237°
2026-05-06 07:35 46.36149 11.30366 24938 ft 285 kts 237°
2026-05-06 07:35 46.34865 11.28180 24940 ft 286 kts 237°
2026-05-06 07:36 46.33572 11.25980 24940 ft 287 kts 237°
2026-05-06 07:36 46.32281 11.23785 24940 ft 287 kts 237°
2026-05-06 07:36 46.30996 11.21600 24939 ft 288 kts 237°
2026-05-06 07:36 46.29693 11.19389 24940 ft 289 kts 237°
2026-05-06 07:37 46.28388 11.17177 24939 ft 289 kts 237°
2026-05-06 07:37 46.27083 11.14965 24940 ft 290 kts 237°